Location: Unspecified
(0.0000°N, 0.0000°E)
Time: 22:33:24
(UTC+00:00)

FENGYUN 1C DEB - Visible Passes

Search period start: 21 February 2024 00:00
Search period end: 02 March 2024 00:00
Orbit: 775 x 869 km, 98.6° (Epoch: 18 February)

Date Brightness Start Highest point End Pass type
(mag) Time Alt. Az. Time Alt. Az. Time Alt. Az.
21 Feb ? 05:16:51 10° E 05:18:23 11° ESE 05:19:56 10° ESE visible
21 Feb ? 19:35:09 10° SW 19:38:04 15° WSW 19:41:00 10° WNW visible
22 Feb ? 19:13:44 10° SSW 19:18:00 27° WSW 19:22:17 10° NW visible
23 Feb ? 18:52:59 10° S 18:57:54 48° WSW 19:02:50 10° NNW visible
24 Feb ? 18:32:40 10° S 18:37:48 85° WSW 18:42:58 10° NNW visible
25 Feb ? 05:34:01 10° ENE 05:37:57 20° ESE 05:41:51 10° SSE visible
26 Feb ? 05:16:29 10° E 05:17:53 11° ESE 05:19:18 10° ESE visible
26 Feb ? 19:34:31 10° SW 19:37:29 16° WSW 19:40:28 10° WNW visible
27 Feb ? 19:13:06 10° SSW 19:17:23 27° WSW 19:21:44 10° NW visible
28 Feb ? 18:52:21 10° S 18:57:17 48° WSW 19:02:16 10° NNW visible
29 Feb ? 18:32:01 10° S 18:37:10 86° WSW 18:42:23 10° NNW visible
01 Mar ? 05:33:31 10° ENE 05:37:23 19° ESE 05:41:13 10° SSE visible
